FW7859 Weather Reports


time (UTC)temp
C
wind
direction
speed
KPH
gust
KPH
rain 1hr
cm
rain 24hr
cm
rain mn
cm
humidity
%
barometer
mb
20260508122003 17 130 3.2 12.9 0.00 0.28 0.25 71 1014.4
20260508121504 18 85 3.2 12.9 0.00 0.28 0.25 75 1014.3
20260508121005 17 64 3.2 11.3 0.00 0.28 0.25 76 1014.3
20260508120714 17 7 3.2 11.3 0.00 0.28 0.25 76 1014.4
20260508120003 17 333 3.2 12.9 0.00 0.28 0.25 77 1014.3
20260508115715 17 342 3.2 12.9 0.00 0.28 0.25 77 1014.6
20260508115213 17 337 6.4 14.5 0.00 0.28 0.25 79 1014.5
20260508114503 16 336 6.4 14.5 0.00 0.28 0.25 82 1014.5
20260508114213 16 356 6.4 14.5 0.00 0.28 0.25 84 1014.4
20260508113504 16 2 4.8 12.9 0.00 0.28 0.25 86 1014.7
20260508113214 16 319 4.8 11.3 0.00 0.28 0.25 88 1014.6
20260508112503 15 334 4.8 14.5 0.00 0.28 0.25 90 1014.5
20260508112003 15 14 3.2 14.5 0.03 0.28 0.25 90 1014.5
20260508111713 15 58 1.6 9.7 0.05 0.28 0.25 91 1014.6
20260508111003 15 325 3.2 11.3 0.08 0.28 0.25 91 1014.7
20260508110506 15 343 4.8 11.3 0.10 0.28 0.25 90 1014.8
20260508110003 15 40 3.2 11.3 0.13 0.28 0.25 90 1014.8
20260508105715 15 58 1.6 11.3 0.13 0.28 0.25 90 1014.7
20260508105004 15 62 1.6 6.4 0.18 0.28 0.25 90 1015.0
20260508104503 15 139 1.6 3.2 0.23 0.28 0.25 90 1014.9
20260508104003 15 263 1.6 4.8 0.23 0.28 0.25 90 1015.4
20260508103504 15 284 1.6 4.8 0.25 0.28 0.25 90 1015.2
20260508103003 15 121 0.0 3.2 0.25 0.28 0.25 89 1015.5
20260508102504 15 271 0.0 4.8 0.25 0.30 0.25 89 1015.6
20260508102004 15 274 1.6 4.8 0.23 0.28 0.23 88 1015.7
20260508101503 15 263 3.2 4.8 0.20 0.25 0.20 88 1015.4
20260508101003 15 256 1.6 4.8 0.18 0.23 0.18 87 1015.6
20260508100504 15 258 3.2 4.8 0.15 0.20 0.15 86 1015.9
20260508100003 15 254 3.2 6.4 0.13 0.23 0.13 85 1015.9
20260508095716 15 254 3.2 6.4 0.13 0.25 0.13 84 1015.5
20260508095003 16 271 3.2 4.8 0.08 0.33 0.08 80 1015.8
20260508094503 16 272 3.2 4.8 0.03 0.36 0.03 78 1015.6
20260508094215 17 265 1.6 4.8 0.03 0.38 0.03 76 1015.6
20260508093503 17 249 1.6 3.2 0.00 0.38 0.00 73 1015.6
20260508093003 17 249 1.6 4.8 0.00 0.46 0.00 73 1015.7
20260508092714 17 249 1.6 4.8 0.00 0.53 0.00 74 1015.7
20260508092003 16 245 1.6 6.4 0.00 0.69 0.00 75 1015.6
20260508091503 16 245 1.6 6.4 0.00 0.74 0.00 77 1015.5
20260508091003 17 246 0.0 3.2 0.00 0.76 0.00 79 1015.5
20260508090503 17 240 0.0 3.2 0.00 0.91 0.00 81 1015.6
20260508090213 17 240 1.6 3.2 0.00 1.02 0.00 81 1015.3
20260508085503 16 233 1.6 4.8 0.00 1.32 0.00 82 1015.4
20260508085214 16 231 1.6 4.8 0.00 1.32 0.00 83 1015.4
20260508084504 16 241 0.0 4.8 0.00 1.32 0.00 84 1015.4
20260508084003 16 245 1.6 3.2 0.00 1.32 0.00 84 1015.3
20260508083713 16 249 1.6 4.8 0.00 1.32 0.00 84 1015.1
20260508083004 15 249 3.2 4.8 0.00 1.32 0.00 84 1015.3
20260508082714 15 247 3.2 4.8 0.00 1.32 0.00 85 1015.2
20260508082003 15 254 1.6 4.8 0.00 1.32 0.00 85 1015.1
20260508081503 15 254 1.6 3.2 0.00 1.32 0.00 85 1015.1
20260508081003 15 236 0.0 1.6 0.00 1.32 0.00 86 1015.0
20260508080716 15 241 0.0 4.8 0.00 1.32 0.00 86 1015.0
20260508080003 15 241 1.6 4.8 0.00 1.32 0.00 86 1015.0
20260508075503 15 236 1.6 3.2 0.00 1.32 0.00 86 1015.2
20260508075003 15 236 1.6 6.4 0.00 1.32 0.00 86 1015.1
20260508074718 15 237 3.2 6.4 0.00 1.32 0.00 86 1015.1
20260508074003 15 238 1.6 4.8 0.00 1.32 0.00 86 1015.1
20260508073719 15 240 1.6 3.2 0.00 1.32 0.00 86 1015.1
20260508073003 15 248 1.6 3.2 0.00 1.32 0.00 86 1014.7
20260508072503 15 249 0.0 1.6 0.00 1.32 0.00 86 1014.3
20260508072003 15 245 0.0 1.6 0.00 1.32 0.00 86 1014.4
20260508071504 15 191 0.0 1.6 0.00 1.32 0.00 86 1014.1
20260508071003 15 191 0.0 1.6 0.00 1.32 0.00 86 1014.2
20260508070503 15 218 0.0 1.6 0.00 1.32 0.00 86 1014.1
20260508070003 15 59 0.0 3.2 0.00 1.32 0.00 86 1014.2
20260508065509 15 335 3.2 9.7 0.00 1.32 0.00 86 1014.0
20260508065003 15 342 3.2 9.7 0.00 1.32 0.00 85 1014.0
20260508064503 15 344 4.8 9.7 0.00 1.32 0.00 85 1013.8
20260508064217 15 335 4.8 9.7 0.00 1.32 0.00 85 1013.7
20260508063503 15 292 3.2 6.4 0.00 1.32 0.00 85 1013.6
20260508063003 15 270 1.6 4.8 0.00 1.32 0.00 85 1013.9
20260508062504 15 251 0.0 3.2 0.00 1.32 0.00 85 1013.7
20260508062003 15 241 0.0 3.2 0.00 1.32 0.00 85 1014.2
20260508061503 15 236 0.0 1.6 0.00 1.32 0.00 85 1014.0
20260508061215 14 238 0.0 1.6 0.00 1.32 0.00 86 1014.2
20260508060503 14 280 1.6 3.2 0.00 1.32 0.00 87 1013.8
20260508060003 14 269 1.6 3.2 0.00 1.32 0.00 87 1013.5
20260508055503 13 248 1.6 3.2 0.00 1.32 0.00 88 1013.6
20260508055003 13 243 1.6 3.2 0.00 1.32 0.00 88 1013.6
20260508054503 13 242 1.6 3.2 0.00 1.32 0.00 88 1013.6
20260508054003 13 239 0.0 3.2 0.00 1.32 0.00 88 1013.8
20260508053715 13 247 0.0 1.6 0.00 1.32 0.00 89 1013.5
20260508053004 13 248 0.0 1.6 0.00 1.32 0.00 89 1013.3
20260508052503 13 243 0.0 1.6 0.00 1.32 0.00 89 1013.2
20260508052214 13 243 0.0 1.6 0.00 1.32 0.00 89 1013.1
20260508051503 13 250 1.6 4.8 0.00 1.32 0.00 89 1013.2
20260508051215 13 247 1.6 4.8 0.00 1.32 0.00 89 1013.1
20260508050503 13 244 1.6 4.8 0.00 1.32 0.00 89 1013.2
20260508050003 13 246 1.6 4.8 0.00 1.32 0.00 89 1013.2
20260508045504 13 242 1.6 4.8 0.00 1.32 0.00 89 1013.1
20260508045003 13 239 1.6 4.8 0.00 1.32 0.00 89 1013.2
20260508044503 13 238 3.2 6.4 0.00 1.32 0.00 89 1013.0
20260508044213 13 239 3.2 6.4 0.00 1.32 0.00 89 1013.2
20260508043504 13 241 3.2 6.4 0.00 1.32 0.00 90 1012.9
20260508043003 13 240 1.6 4.8 0.00 1.32 0.00 90 1012.9
20260508042717 13 245 1.6 6.4 0.00 1.32 0.00 90 1012.8
20260508042004 13 250 3.2 6.4 0.00 1.32 0.00 90 1013.0
20260508041504 13 245 3.2 6.4 0.00 1.32 0.00 90 1012.9
20260508041216 13 242 3.2 6.4 0.00 1.32 0.00 90 1013.0
20260508040503 13 244 1.6 4.8 0.00 1.32 0.00 91 1013.3
20260508040003 13 246 1.6 3.2 0.00 1.32 0.00 91 1013.1
20260508035503 13 243 1.6 3.2 0.00 1.32 0.00 91 1013.1
20260508035003 13 242 1.6 4.8 0.00 1.32 0.00 91 1013.2
20260508034503 13 242 1.6 4.8 0.00 1.32 0.00 91 1013.2
20260508034003 13 243 1.6 3.2 0.00 1.32 0.00 91 1013.1
20260508033503 13 244 1.6 3.2 0.00 1.32 0.00 91 1013.0
20260508033004 13 243 1.6 3.2 0.00 1.32 0.00 92 1013.0
20260508032504 13 242 1.6 3.2 0.00 1.32 0.00 92 1013.0
20260508032003 13 242 0.0 3.2 0.00 1.32 0.00 92 1012.5
20260508031503 13 243 0.0 3.2 0.00 1.32 0.00 92 1012.7
20260508031003 13 263 1.6 4.8 0.00 1.32 0.00 92 1012.8
20260508030503 13 271 3.2 4.8 0.00 1.32 0.00 92 1012.7
20260508030004 13 269 3.2 6.4 0.00 1.32 0.00 92 1013.0
20260508025503 13 259 1.6 6.4 0.00 1.32 0.00 92 1013.1
20260508025003 13 248 1.6 4.8 0.00 1.32 0.00 92 1013.2
20260508024716 13 244 1.6 3.2 0.00 1.32 0.00 92 1013.2
20260508024004 13 237 1.6 6.4 0.00 1.32 0.00 92 1013.4
20260508023503 13 239 3.2 6.4 0.00 1.32 0.00 92 1013.6
20260508023004 13 242 3.2 6.4 0.00 1.32 0.00 92 1013.5
20260508022503 13 242 3.2 4.8 0.00 1.32 0.00 92 1013.5
20260508022003 13 240 1.6 4.8 0.00 1.32 0.00 92 1013.3
20260508021503 13 245 1.6 4.8 0.00 1.32 0.00 92 1013.3
20260508021217 13 245 1.6 4.8 0.00 1.32 0.00 92 1013.1
20260508020503 13 241 3.2 4.8 0.00 1.32 0.00 92 1013.2
20260508020004 13 245 1.6 3.2 0.00 1.32 0.00 92 1013.7
20260508015503 13 246 1.6 4.8 0.00 1.32 0.00 92 1013.4
20260508015003 13 243 1.6 4.8 0.00 1.32 0.00 92 1013.6
20260508014503 13 247 1.6 4.8 0.00 1.32 0.00 92 1013.5
20260508014003 13 244 1.6 4.8 0.00 1.32 0.00 92 1013.5
20260508013713 13 241 1.6 4.8 0.00 1.32 0.00 92 1013.4
20260508013003 13 239 1.6 4.8 0.00 1.32 0.00 91 1013.7
20260508012503 13 244 1.6 3.2 0.00 1.32 0.00 91 1013.5
20260508012003 13 263 1.6 3.2 0.00 1.32 0.00 91 1013.8
20260508011503 13 265 3.2 4.8 0.00 1.32 0.00 91 1013.7
20260508011003 13 257 3.2 4.8 0.00 1.32 0.00 91 1013.6
20260508010503 13 252 1.6 4.8 0.00 1.32 0.00 91 1013.6
20260508010004 13 242 0.0 1.6 0.00 1.32 0.00 91 1013.9
20260508005504 13 244 0.0 1.6 0.00 1.32 0.00 91 1013.8
20260508005003 13 246 1.6 3.2 0.00 1.32 0.00 91 1014.0
20260508004504 13 245 1.6 3.2 0.00 1.32 0.00 91 1013.9
20260508004003 13 245 1.6 4.8 0.00 1.32 0.00 91 1014.1
20260508003503 13 247 1.6 4.8 0.00 1.32 0.00 91 1014.2
20260508003003 13 241 1.6 4.8 0.00 1.32 0.00 90 1014.2
20260508002504 13 233 1.6 4.8 0.00 1.32 0.00 90 1014.0
20260508002003 13 240 1.6 4.8 0.00 1.32 0.00 90 1014.2
20260508001504 13 245 1.6 4.8 0.00 1.32 0.00 90 1014.3
20260508001003 13 246 1.6 4.8 0.00 1.32 0.00 90 1014.3
20260508000716 14 245 0.0 4.8 0.00 1.32 0.00 90 1014.4
20260508000004 14 238 1.6 3.2 0.00 1.32 0.00 89 1014.8
20260507235717 13 238 1.6 3.2 0.00 1.32 0.00 89 1014.9
20260507235003 14 240 0.0 3.2 0.00 1.32 0.00 89 1015.0
20260507234503 14 238 1.6 3.2 0.00 1.32 0.00 89 1014.8
20260507234004 14 239 1.6 3.2 0.00 1.32 0.00 89 1014.9
20260507233503 14 242 1.6 4.8 0.00 1.32 0.00 89 1015.0
20260507233217 14 241 3.2 4.8 0.00 1.32 0.00 89 1014.8
20260507232715 14 239 3.2 4.8 0.00 1.32 0.00 89 1014.8
20260507232003 14 232 1.6 4.8 0.00 1.32 0.00 88 1014.8
20260507231503 14 231 1.6 3.2 0.00 1.32 0.00 88 1015.0
20260507231003 14 255 1.6 4.8 0.00 1.32 0.00 88 1015.0
20260507230503 14 270 1.6 4.8 0.00 1.32 0.00 88 1014.7
20260507230003 14 265 1.6 4.8 0.00 1.32 0.00 88 1014.9
20260507225504 14 251 1.6 4.8 0.00 1.32 0.00 88 1014.8
20260507225003 14 240 1.6 4.8 0.00 1.32 0.00 88 1015.1
20260507224503 14 258 1.6 6.4 0.00 1.32 0.00 87 1015.1
20260507224217 14 261 3.2 6.4 0.00 1.32 0.00 88 1015.2
20260507223715 14 260 3.2 4.8 0.00 1.32 0.00 87 1015.0
20260507223003 14 253 3.2 6.4 0.00 1.32 0.00 87 1015.0
20260507222503 14 246 1.6 6.4 0.00 1.32 0.00 88 1015.0
20260507222005 14 255 1.6 6.4 0.00 1.32 0.00 88 1014.8
20260507221504 14 257 4.8 9.7 0.00 1.32 0.00 87 1015.1
20260507221003 14 255 4.8 9.7 0.00 1.32 0.00 87 1014.8
20260507220503 15 248 3.2 6.4 0.00 1.32 0.00 87 1014.9
20260507220003 15 239 3.2 6.4 0.00 1.32 0.00 87 1014.9
20260507215503 15 240 3.2 6.4 0.00 1.32 1.32 86 1015.0
20260507215003 15 256 3.2 6.4 0.00 1.32 1.32 86 1014.9
20260507214503 15 273 3.2 6.4 0.00 1.32 1.32 85 1014.6
20260507214212 15 290 3.2 6.4 0.00 1.32 1.32 85 1014.6
20260507213503 15 323 4.8 9.7 0.00 1.32 1.32 85 1014.8
20260507213003 15 334 6.4 11.3 0.00 1.32 1.32 85 1014.8
20260507212503 15 340 6.4 14.5 0.00 1.32 1.32 85 1014.6
20260507212214 15 342 8.0 14.5 0.00 1.32 1.32 85 1014.7
20260507211503 15 344 6.4 12.9 0.00 1.32 1.32 86 1014.7
20260507211003 15 336 8.0 16.1 0.00 1.32 1.32 86 1014.8
20260507210713 15 340 9.7 16.1 0.00 1.32 1.32 86 1014.6
20260507210003 15 351 9.7 17.7 0.00 1.32 1.32 87 1014.5
20260507205714 15 351 11.3 17.7 0.00 1.32 1.32 87 1014.5
20260507205006 15 343 9.7 16.1 0.00 1.32 1.32 87 1014.4
20260507204503 15 334 8.0 12.9 0.00 1.32 1.32 87 1014.4
20260507204003 15 335 8.0 14.5 0.00 1.32 1.32 86 1014.4
20260507203716 15 333 9.7 14.5 0.00 1.32 1.32 86 1014.2
20260507203214 15 360 9.7 20.9 0.00 1.32 1.32 86 1014.3
20260507202503 15 42 8.0 20.9 0.00 1.32 1.32 85 1014.3
20260507202004 15 26 8.0 20.9 0.00 1.32 1.32 85 1014.4
20260507201503 15 353 8.0 16.1 0.00 1.32 1.32 85 1014.2
20260507201004 16 358 8.0 12.9 0.00 1.32 1.32 86 1014.0
20260507200503 16 25 8.0 16.1 0.00 1.32 1.32 86 1013.9
20260507200217 16 29 8.0 16.1 0.00 1.32 1.32 86 1014.1
20260507195715 16 32 8.0 16.1 0.00 1.32 1.32 85 1013.8
20260507195003 16 30 11.3 25.7 0.00 1.32 1.32 85 1013.6
20260507194716 16 34 11.3 25.7 0.00 1.32 1.32 85 1013.6
20260507194003 16 37 8.0 25.7 0.00 1.32 1.32 84 1013.7
20260507193504 16 48 4.8 16.1 0.00 1.32 1.32 84 1013.4
20260507193004 16 55 4.8 14.5 0.00 1.32 1.32 84 1013.6
20260507192503 16 48 4.8 14.5 0.00 1.32 1.32 83 1013.5
20260507192003 16 39 4.8 14.5 0.00 1.32 1.32 83 1013.4
20260507191503 17 33 4.8 12.9 0.00 1.32 1.32 83 1013.3
20260507191003 17 41 4.8 14.5 0.00 1.32 1.32 82 1013.1
20260507190714 17 49 4.8 14.5 0.00 1.32 1.32 82 1013.1
20260507190004 17 16 6.4 14.5 0.00 1.32 1.32 81 1012.9
20260507185715 17 8 8.0 14.5 0.00 1.32 1.32 80 1013.1
20260507185003 17 6 9.7 17.7 0.00 1.32 1.32 79 1013.1
20260507184503 17 30 6.4 17.7 0.00 1.32 1.32 80 1012.9
20260507184003 17 57 4.8 17.7 0.00 1.32 1.32 81 1012.7
20260507183503 17 42 8.0 20.9 0.00 1.32 1.32 81 1012.8
20260507183003 17 19 9.7 20.9 0.00 1.32 1.32 80 1012.7
20260507182503 17 7 9.7 20.9 0.00 1.32 1.32 80 1012.4
20260507182003 17 15 8.0 22.5 0.00 1.32 1.32 80 1012.5
20260507181503 17 13 11.3 27.4 0.00 1.32 1.32 80 1012.1
20260507181003 17 20 11.3 27.4 0.00 1.32 1.32 80 1012.2
20260507180503 17 23 11.3 27.4 0.00 1.32 1.32 78 1012.3
20260507180004 17 16 14.5 25.7 0.00 1.32 1.32 77 1012.0
20260507175503 17 23 12.9 25.7 0.00 1.32 1.32 78 1011.7
20260507175003 17 39 11.3 27.4 0.00 1.32 1.32 78 1011.9
20260507174503 17 28 11.3 27.4 0.00 1.32 1.32 78 1012.2
20260507174003 18 1 12.9 25.7 0.00 1.32 1.32 77 1011.8
20260507173713 18 355 12.9 25.7 0.00 1.32 1.32 78 1011.7
20260507173004 18 356 11.3 25.7 0.00 1.32 1.32 78 1011.9
20260507172503 18 344 8.0 16.1 0.00 1.32 1.32 79 1011.8
20260507172003 18 353 8.0 16.1 0.00 1.32 1.32 80 1011.7
20260507171715 18 350 8.0 16.1 0.00 1.32 1.32 79 1011.8
20260507171003 18 349 9.7 17.7 0.00 1.32 1.32 79 1011.8
20260507170715 18 357 8.0 17.7 0.00 1.32 1.32 78 1011.8
20260507170005 18 313 6.4 14.5 0.00 1.32 1.32 78 1011.7
20260507165503 18 305 6.4 14.5 0.00 1.32 1.32 78 1011.8
20260507165003 18 307 6.4 12.9 0.00 1.32 1.32 79 1011.8
20260507164503 18 284 6.4 12.9 0.00 1.32 1.32 78 1011.7
20260507164215 18 283 4.8 9.7 0.00 1.32 1.32 78 1011.7
20260507163503 18 350 4.8 11.3 0.00 1.32 1.32 79 1011.8
20260507163003 18 15 4.8 11.3 0.00 1.32 1.32 79 1011.7
20260507162503 18 14 4.8 11.3 0.00 1.32 1.32 79 1012.1
20260507162003 18 32 3.2 11.3 0.00 1.32 1.32 79 1011.9
20260507161503 17 46 3.2 11.3 0.00 1.32 1.32 79 1011.5
20260507161213 17 20 4.8 12.9 0.00 1.32 1.32 79 1011.6
20260507160503 18 339 6.4 14.5 0.00 1.32 1.32 79 1011.9
20260507160003 18 68 4.8 14.5 0.00 1.32 1.32 79 1011.8
20260507155717 17 50 4.8 14.5 0.00 1.32 1.32 79 1012.0
20260507155215 18 23 6.4 16.1 0.00 1.32 1.32 78 1011.7
20260507154503 18 36 4.8 11.3 0.00 1.32 1.32 77 1011.9
20260507154003 18 21 4.8 12.9 0.00 1.32 1.32 75 1011.6
20260507153714 18 2 6.4 14.5 0.00 1.32 1.32 74 1011.7
20260507153003 18 360 8.0 20.9 0.00 1.32 1.32 73 1011.5
20260507152715 18 357 8.0 20.9 0.00 1.32 1.32 73 1011.7
20260507152003 18 27 8.0 16.1 0.00 1.32 1.32 73 1011.2
20260507151716 18 36 8.0 17.7 0.00 1.32 1.32 73 1011.8
20260507151003 18 35 6.4 20.9 0.00 1.32 1.32 74 1011.6
20260507150717 17 47 4.8 20.9 0.00 1.32 1.32 73 1011.6
20260507150004 17 58 6.4 14.5 0.00 1.32 1.32 74 1011.8
20260507145503 17 49 4.8 14.5 0.00 1.32 1.32 75 1011.9
20260507145004 17 359 4.8 11.3 0.00 1.32 1.32 76 1011.9
20260507144503 17 329 6.4 11.3 0.00 1.32 1.32 77 1012.0
20260507144217 17 334 6.4 11.3 0.00 1.32 1.32 77 1011.8
20260507143503 17 359 3.2 12.9 0.00 1.32 1.32 78 1011.9
20260507143003 17 330 6.4 12.9 0.00 1.32 1.32 79 1011.7
20260507142503 17 332 8.0 16.1 0.00 1.32 1.32 81 1011.7
20260507142004 17 342 8.0 16.1 0.00 1.32 1.32 82 1011.9
20260507141503 17 1 8.0 16.1 0.03 1.32 1.32 82 1011.9
20260507141003 17 9 9.7 17.7 0.03 1.32 1.32 82 1011.8
20260507140504 17 14 8.0 17.7 0.03 1.32 1.32 82 1011.9
20260507140003 17 19 6.4 17.7 0.03 1.32 1.32 83 1011.8
20260507135713 17 48 6.4 17.7 0.03 1.32 1.32 83 1011.7
20260507135003 17 86 8.0 24.1 0.03 1.32 1.32 83 1011.9
20260507134503 17 72 8.0 24.1 0.03 1.32 1.32 83 1011.8
20260507134003 17 85 6.4 17.7 0.03 1.32 1.32 83 1011.8
20260507133715 17 63 6.4 17.7 0.03 1.32 1.32 84 1012.0
20260507133003 16 79 6.4 16.1 0.03 1.32 1.32 85 1011.9
20260507132503 16 82 4.8 12.9 0.03 1.32 1.32 86 1011.7
20260507132003 16 85 6.4 14.5 0.03 1.32 1.32 85 1011.7
20260507131503 16 106 6.4 14.5 0.00 1.30 1.30 86 1011.9
20260507131005 17 100 6.4 17.7 0.00 1.30 1.30 85 1012.1
20260507130503 16 92 6.4 17.7 0.00 1.30 1.30 84 1012.3
20260507130004 16 65 4.8 17.7 0.00 1.30 1.30 83 1012.2
20260507125503 16 74 8.0 24.1 0.00 1.30 1.30 82 1012.3
20260507125003 16 78 8.0 27.4 0.00 1.30 1.30 81 1012.4
20260507124715 17 64 9.7 27.4 0.00 1.30 1.30 80 1012.3
20260507124003 17 59 8.0 27.4 0.00 1.30 1.30 79 1012.2
20260507123503 17 60 8.0 22.5 0.00 1.30 1.30 78 1012.3
20260507123004 17 59 9.7 24.1 0.00 1.30 1.30 78 1012.2
20260507122717 17 53 9.7 27.4 0.00 1.30 1.30 79 1012.2